Regional Weather Roundup
Issued by NWS

Home | Current Version | Previous Version | Text Only | Print | Product List | Glossary Off
Versions: 1 2 3 4 5 6 7 8 9 10 11 12 13 14 15 16 17 18 19 20 21 22 23 24 25 26 27 28 29 30 31 32 33 34 35 36 37 38 39 40 41 42 43 44 45 46 47 48 49 50

000
ASUS43 KFSD 310110
RWRSD

WEATHER ROUNDUP FOR SOUTH DAKOTA
NATIONAL WEATHER SERVICE SIOUX FALLS SD
800 PM CDT THU OCT 30 2014

NOTE: "FAIR" INDICATES FEW OR NO CLOUDS BELOW 12,000 FEET WITH NO
SIGNIFICANT WEATHER AND/OR OBSTRUCTIONS TO VISIBILITY.


SDZ001>005-009-010-012>017-310200-
NORTHWEST AND NORTH CENTRAL SOUTH DAKOTA

CITY           SKY/WX    TMP DP  RH WIND       PRES   REMARKS
BUFFALO          N/A     36  29  75 E14       30.38R
FAITH            N/A     37  29  72 NE8       30.45R
MOBRIDGE       CLOUDY    37  29  72 N14       30.47R
$$

SDZ012>016-024>037-041>051-057-063-072>074-310200-
SOUTHWEST AND SOUTH CENTRAL SOUTH DAKOTA

CITY           SKY/WX    TMP DP  RH WIND       PRES   REMARKS
RAPID CTY ARPT CLEAR     33  29  85 E7        30.44R WCI  27
PIERRE         CLOUDY    37  30  75 N12       30.47R
CUSTER         CLEAR     37  32  82 NE6       30.38S
ELLSWORTH AFB  CLEAR     37  31  79 E6        30.43R
PHILIP         CLEAR     34  28  79 N8        30.45R WCI  27
PINE RIDGE     CLEAR     38  30  73 NE7       30.41R
SPEARFISH      FAIR      32  30  93 E5        30.41S WCI  27
WINNER         FAIR      38  30  73 N10       30.43R
$$

SDZ004>011-016>023-039-040-310200-
NORTHEAST SOUTH DAKOTA

CITY           SKY/WX    TMP DP  RH WIND       PRES   REMARKS
ABERDEEN       CLOUDY    35  23  61 N21G29    30.49R WCI  24
WATERTOWN      CLOUDY    33  25  72 N18G25    30.40R WCI  22
SISSETON         N/A     34  23  64 N16G36    30.45R WCI  24
$$

SDZ017-020-022-023-036>040-048>070-310200-
SOUTHEAST SOUTH DAKOTA

CITY           SKY/WX    TMP DP  RH WIND       PRES   REMARKS
SIOUX FALLS    CLOUDY    38  30  73 N24G36    30.36R
HURON          CLOUDY    37  28  70 N17G26    30.45R
CHAMBERLAIN    PTCLDY    37  30  75 N10       30.45R
MITCHELL       CLOUDY    39  30  70 N20       30.43R
YANKTON        CLOUDY    43  34  70 N21G29    30.38R
$$

ABBREVIATIONS USED IN REMARKS
   TC - TEMPERATURE IN CELSIUS
  WCI - WIND CHILL INDEX
   HX - HEAT INDEX
  VSB - VISIBILITY




USA.gov is the U.S. government's official web portal to all federal, state and local government web resources and services.